{"data":{"norad_id":60044,"intl_designator":"2024-112G","name":"STARLINK-11148 [DTC]","alt_names":[],"object_type":"PAYLOAD","status":"ACTIVE","operator":null,"country":"US","launch_date":"2024-06-08","launch_site_code":"AFWTR","launch_vehicle":null,"mission":null,"orbit_class":"UNKNOWN","rcs_meters":null,"size_class":null,"mass_kg":null,"dimensions":null,"purposes":["comms"],"wikipedia_slug":null,"has_3d_model":false,"image_url":null,"decayed_at":null,"tle_current":{"epoch":"2026-05-24T14:23:07.581120Z","epoch_age_seconds":106171,"freshness":"FRESH","line1":"1 60044U 24112G   26144.59939330  .00001973  00000+0  21141-4 0  9994","line2":"2 60044  53.1596 252.0477 0000982  78.5879 281.5249 15.69708828112903","mean_motion":15.69708828,"eccentricity":9.82e-5,"inclination_deg":53.1596,"raan_deg":252.0477,"arg_perigee_deg":78.5879,"mean_anomaly_deg":281.5249,"bstar":2.1141e-5,"rev_number":11290,"period_min":91.736758710514,"perigee_km":359.06844568761,"apogee_km":360.39176278689,"semimajor_km":6737.8671042372,"source":"CELESTRAK","updated_at":"2026-05-25T13:38:19.153182Z"}}}